Location: Buch
(50.1863°N, 11.0141°E)
Time: 17:13:58
(UTC+00:00)

Cosmos 2327 Rocket - Pass Details

Date: 18 January 2020
Orbit: 943 x 1009 km, 83.0° (Epoch: 18 February)

Event Time Altitude Azimuth Distance (km) Brightness Sun altitude
Rises 04:47:21 0° 347° (NNW) 3,725 7.4 -21.8°
Reaches altitude 10° 04:49:56 10° 344° (NNW) 2,763 6.6 -21.4°
Maximum altitude 04:56:06 58° 268° (W) 1,137 4.5 -20.4°
Drops below altitude 10° 05:02:08 10° 191° (S) 2,699 6.8 -19.5°
Sets 05:04:39 0° 187° (S) 3,632 7.5 -19.1°
